• In Schweiz
  • Länderverzeichnis
  • Für 7 Tage
  • Wassertemperatur
  • Satellitenkarten
  • Wetterkarte
  • Widgets
  • user-avatar
    Anmelden

    Stündliche Wetter Kalemie

    Heute, 21 Juni, Donnerstag

    Zeit Temperatur Niederschläge Wind Luftdruck Luftfeuchtigkeit
    00:00 +21°C° 0 mm 0 m/S 709 mmHg 84%
    01:00 +21°C° 0 mm 0 m/S 709 mmHg 84%
    02:00 +20°C° 0 mm 0 m/S 708 mmHg 84%
    03:00 +20°C° 0 mm 0 m/S 708 mmHg 85%
    04:00 +20°C° 0 mm 0 m/S 708 mmHg 86%
    05:00 +19°C° 0 mm 0 m/S 708 mmHg 86%
    06:00 +21°C° 0 mm 0 m/S 709 mmHg 82%
    07:00 +24°C° 0 mm 1 m/S 709 mmHg 77%
    08:00 +26°C° 0 mm 1 m/S 710 mmHg 70%
    09:00 +29°C° 0 mm 1 m/S 710 mmHg 64%
    10:00 +29°C° 0 mm 0 m/S 710 mmHg 57%
    11:00 +32°C° 0 mm 0 m/S 710 mmHg 50%
    12:00 +34°C° 0 mm 1 m/S 709 mmHg 48%
    13:00 +33°C° 0 mm 1 m/S 709 mmHg 46%
    14:00 +34°C° 0 mm 2 m/S 708 mmHg 45%
    15:00 +32°C° 0 mm 1 m/S 708 mmHg 50%
    16:00 +32°C° 0 mm 1 m/S 708 mmHg 54%
    17:00 +31°C° 0 mm 1 m/S 707 mmHg 58%
    18:00 +30°C° 0 mm 1 m/S 708 mmHg 62%
    19:00 +28°C° 0 mm 1 m/S 708 mmHg 65%
    20:00 +26°C° 0 mm 1 m/S 708 mmHg 69%
    21:00 +25°C° 0 mm 1 m/S 708 mmHg 72%
    22:00 +25°C° 0 mm 1 m/S 708 mmHg 74%
    23:00 +24°C° 0 mm 1 m/S 708 mmHg 77%

    Morgen, 22 Juni, Freitag

    Zeit Temperatur Niederschläge Wind Luftdruck Luftfeuchtigkeit
    00:00 +23°C° 0 mm 1 m/S 708 mmHg 79%
    01:00 +23°C° 0 mm 1 m/S 708 mmHg 81%
    02:00 +22°C° 0 mm 1 m/S 708 mmHg 83%
    03:00 +22°C° 0 mm 1 m/S 707 mmHg 85%
    04:00 +22°C° 0 mm 1 m/S 707 mmHg 87%
    05:00 +21°C° 0 mm 1 m/S 707 mmHg 89%
    06:00 +23°C° 0,1 mm 1 m/S 708 mmHg 85%
    07:00 +24°C° 0,1 mm 1 m/S 708 mmHg 80%
    08:00 +26°C° 0,1 mm 1 m/S 708 mmHg 76%
    09:00 +28°C° 0 mm 1 m/S 709 mmHg 66%
    10:00 +31°C° 0 mm 1 m/S 709 mmHg 57%
    11:00 +33°C° 0 mm 1 m/S 709 mmHg 47%
    12:00 +34°C° 0 mm 1 m/S 708 mmHg 44%
    13:00 +35°C° 0 mm 2 m/S 708 mmHg 42%
    14:00 +36°C° 0 mm 2 m/S 707 mmHg 39%
    15:00 +35°C° 0 mm 2 m/S 707 mmHg 44%
    16:00 +33°C° 0 mm 1 m/S 706 mmHg 48%
    17:00 +32°C° 0 mm 1 m/S 706 mmHg 53%
    18:00 +30°C° 0 mm 1 m/S 706 mmHg 56%
    19:00 +28°C° 0 mm 1 m/S 706 mmHg 60%
    20:00 +26°C° 0 mm 1 m/S 706 mmHg 63%
    21:00 +26°C° 0 mm 1 m/S 707 mmHg 67%
    22:00 +25°C° 0 mm 1 m/S 707 mmHg 70%
    23:00 +25°C° 0 mm 2 m/S 708 mmHg 73%

    übermorgen, 23 Juni, Samstag

    Zeit Temperatur Niederschläge Wind Luftdruck Luftfeuchtigkeit
    00:00 +24°C° 0,3 mm 2 m/S 707 mmHg 79%
    01:00 +23°C° 0,3 mm 2 m/S 707 mmHg 85%
    02:00 +21°C° 0,3 mm 2 m/S 707 mmHg 91%
    03:00 +21°C° 0 mm 2 m/S 707 mmHg 92%
    04:00 +21°C° 0 mm 2 m/S 707 mmHg 93%
    05:00 +20°C° 0 mm 2 m/S 707 mmHg 94%
    06:00 +21°C° 0 mm 2 m/S 707 mmHg 90%
    07:00 +23°C° 0 mm 2 m/S 708 mmHg 86%
    08:00 +25°C° 0 mm 3 m/S 708 mmHg 82%
    09:00 +27°C° 0 mm 2 m/S 709 mmHg 72%
    10:00 +29°C° 0 mm 2 m/S 709 mmHg 61%
    11:00 +32°C° 0 mm 2 m/S 709 mmHg 51%
    12:00 +34°C° 0 mm 2 m/S 709 mmHg 48%
    13:00 +34°C° 0 mm 1 m/S 708 mmHg 45%
    14:00 +35°C° 0 mm 1 m/S 707 mmHg 42%
    15:00 +34°C° 0 mm 1 m/S 707 mmHg 47%
    16:00 +33°C° 0 mm 1 m/S 706 mmHg 51%
    17:00 +32°C° 0 mm 1 m/S 706 mmHg 56%
    18:00 +30°C° 0 mm 1 m/S 706 mmHg 59%
    19:00 +28°C° 0 mm 1 m/S 706 mmHg 63%
    20:00 +26°C° 0 mm 1 m/S 706 mmHg 67%
    21:00 +26°C° 0 mm 2 m/S 706 mmHg 70%
    22:00 +25°C° 0 mm 2 m/S 706 mmHg 74%
    23:00 +24°C° 0 mm 2 m/S 706 mmHg 77%

    24 Juni, Sonntag

    Zeit Temperatur Niederschläge Wind Luftdruck Luftfeuchtigkeit
    00:00 +24°C° 0,1 mm 2 m/S 706 mmHg 81%
    01:00 +23°C° 0,1 mm 1 m/S 706 mmHg 84%
    02:00 +22°C° 0,1 mm 1 m/S 706 mmHg 87%
    03:00 +22°C° 0,6 mm 1 m/S 706 mmHg 90%
    04:00 +21°C° 0,6 mm 1 m/S 706 mmHg 92%
    05:00 +21°C° 0,6 mm 1 m/S 706 mmHg 95%
    06:00 +22°C° 0,7 mm 1 m/S 707 mmHg 94%
    07:00 +23°C° 0,7 mm 2 m/S 707 mmHg 92%
    08:00 +23°C° 0,7 mm 2 m/S 708 mmHg 91%
    09:00 +25°C° 0,9 mm 2 m/S 708 mmHg 87%
    10:00 +26°C° 0,9 mm 2 m/S 708 mmHg 83%
    11:00 +27°C° 0,9 mm 2 m/S 708 mmHg 79%
    12:00 +29°C° 0,5 mm 2 m/S 708 mmHg 72%
    13:00 +30°C° 0,5 mm 2 m/S 707 mmHg 64%
    14:00 +31°C° 0,5 mm 2 m/S 707 mmHg 56%
    15:00 +30°C° 0,3 mm 2 m/S 707 mmHg 61%
    16:00 +29°C° 0,3 mm 1 m/S 706 mmHg 66%
    17:00 +29°C° 0,3 mm 1 m/S 706 mmHg 71%
    18:00 +27°C° 0,4 mm 1 m/S 706 mmHg 76%
    19:00 +25°C° 0,4 mm 1 m/S 707 mmHg 81%
    20:00 +22°C° 0,4 mm 0 m/S 707 mmHg 85%
    21:00 +21°C° 0 mm 0 m/S 707 mmHg 87%
    22:00 +23°C° 0 mm 1 m/S 707 mmHg 88%
    23:00 +23°C° 0 mm 1 m/S 707 mmHg 89%

    25 Juni, Montag

    Zeit Temperatur Niederschläge Wind Luftdruck Luftfeuchtigkeit
    00:00 +22°C° 0 mm 1 m/S 706 mmHg 91%
    01:00 +22°C° 0 mm 1 m/S 706 mmHg 92%
    02:00 +22°C° 0 mm 1 m/S 705 mmHg 93%
    03:00 +21°C° 0 mm 1 m/S 705 mmHg 94%
    04:00 +21°C° 0 mm 1 m/S 705 mmHg 94%
    05:00 +21°C° 0 mm 1 m/S 706 mmHg 94%
    06:00 +22°C° 0 mm 1 m/S 706 mmHg 90%
    07:00 +23°C° 0 mm 1 m/S 707 mmHg 86%
    08:00 +25°C° 0 mm 1 m/S 708 mmHg 82%
    09:00 +27°C° 0,3 mm 1 m/S 708 mmHg 75%
    10:00 +29°C° 0,3 mm 1 m/S 708 mmHg 67%
    11:00 +31°C° 0,3 mm 1 m/S 708 mmHg 60%
    12:00 +32°C° 0,4 mm 1 m/S 707 mmHg 56%
    13:00 +32°C° 0,4 mm 1 m/S 707 mmHg 53%
    14:00 +33°C° 0,4 mm 1 m/S 706 mmHg 49%
    15:00 +32°C° 0 mm 1 m/S 706 mmHg 52%
    16:00 +32°C° 0 mm 1 m/S 706 mmHg 55%
    17:00 +29°C° 0 mm 0 m/S 706 mmHg 58%
    18:00 +29°C° 0,1 mm 1 m/S 706 mmHg 62%
    19:00 +27°C° 0,1 mm 1 m/S 706 mmHg 67%
    20:00 +26°C° 0,1 mm 1 m/S 706 mmHg 72%
    21:00 +25°C° 0,5 mm 1 m/S 706 mmHg 76%
    22:00 +24°C° 0,5 mm 1 m/S 706 mmHg 80%
    23:00 +23°C° 0,5 mm 1 m/S 706 mmHg 85%

    26 Juni, Dienstag

    Zeit Temperatur Niederschläge Wind Luftdruck Luftfeuchtigkeit
    00:00 +23°C° 0,1 mm 1 m/S 706 mmHg 86%
    01:00 +23°C° 0,1 mm 1 m/S 705 mmHg 87%
    02:00 +22°C° 0,1 mm 1 m/S 705 mmHg 89%
    03:00 +22°C° 0,1 mm 1 m/S 705 mmHg 89%
    04:00 +22°C° 0,1 mm 1 m/S 706 mmHg 90%
    05:00 +22°C° 0,1 mm 1 m/S 706 mmHg 91%
    06:00 +23°C° 0 mm 1 m/S 706 mmHg 87%
    07:00 +24°C° 0 mm 1 m/S 707 mmHg 83%
    08:00 +25°C° 0 mm 1 m/S 708 mmHg 79%
    09:00 +28°C° 0,4 mm 1 m/S 708 mmHg 71%
    10:00 +30°C° 0,4 mm 1 m/S 708 mmHg 62%
    11:00 +33°C° 0,4 mm 1 m/S 708 mmHg 53%
    12:00 +33°C° 0,1 mm 1 m/S 707 mmHg 52%
    13:00 +34°C° 0,1 mm 1 m/S 707 mmHg 50%
    14:00 +34°C° 0,1 mm 1 m/S 706 mmHg 49%
    15:00 +32°C° 0,4 mm 1 m/S 706 mmHg 56%
    16:00 +30°C° 0,4 mm 1 m/S 705 mmHg 63%
    17:00 +29°C° 0,4 mm 1 m/S 705 mmHg 70%
    18:00 +27°C° 0,9 mm 1 m/S 705 mmHg 76%
    19:00 +25°C° 0,9 mm 1 m/S 706 mmHg 82%
    20:00 +24°C° 0,9 mm 1 m/S 706 mmHg 88%
    21:00 +23°C° 0,4 mm 1 m/S 706 mmHg 89%
    22:00 +23°C° 0,4 mm 1 m/S 706 mmHg 91%
    23:00 +22°C° 0,4 mm 1 m/S 706 mmHg 92%
    Mehr zeigen